GSAT0234 (GALILEO 34)

Last updated on Fri Sep 04 2026 00:02:49 GMT+0000 (Coordinated Universal Time)

1 67162U 25302C 26237.15322242 .00000003 00000+0 00000+0 0 9996 2 67162 54.3792 100.1638 0000644 351.6159 191.1773 1.70474265 4354
UTC large
Height (km)
Speed (km/s)
/
Latitude / Longitude
Inclination (degrees)
Orbital Period (minutes)
Azimuth
Elevation
Range (km)
Doppler Factor

Next 0 passes for location: London (51.5072 / 0.1276)

No passes found over London.
GSAT0234 (GALILEO 34)